SCP
-0 -0 -0 -0 -0 -0 0 0 0 0 0 0 0 0 0 0 0 0 -0 0 0 0 0 0 0 0 0 0 0 0 0 0 0 0 0 0 0 0 0 0 0 0 0 0 0 0 0 0 0
-0 -0 0 0 0 0 0 0 0 0 0 0 0 0 0 0 0 0 0 0 0 0 0 0 0 0 0 0 0 0 0 0 0 0 0 0 0 0 0 0 0 0 0 0 0 0 0 0 0
-0 0 0 0 0 0 0 0 0 0 0 0 0 0 0 0 0 0 0 0 0 0 0 0 0 0 0 0 0 0 0 0 0 0 0 0 0 0 0 0 0 0 0 0 0 0 0 0 0
-0 0 0 0 0 0 0 0 0 0 0 0 0 0 0 0 0 0 0 0 0 0 0 0 0 0 0 0 0 0 0 0 0 0 0 0 0 0 0 0 0 0 0 -0 0 0 0 0 0
0 0 0 0 0 0 0 0 0 0 0 0 0 0 0 0 0 0 0 0 0 0 0 0 0 0 0 0 0 0 0 1 0 0 0 0 0 0 0 0 0 0 0 0 0 0 0 0 0
0 0 0 0 0 0 0 0 0 0 0 0 0 0 0 0 0 0 0 0 0 0 0 0 0 0 0 0 0 0 0 0 0 0 1 1 0 0 0 0 0 0 0 0 0 0 0 0 0
0 0 0 0 0 0 0 0 0 0 0 0 0 0 0 0 0 0 0 0 0 0 0 0 0 0 0 0 0 0 0 0 0 0 0 1 1 1 0 0 0 0 0 0 0 0 0 0 0
0 0 0 0 0 0 0 0 0 0 0 0 0 0 0 0 0 0 0 0 0 0 0 0 0 0 0 0 0 0 0 0 0 0 0 0 0 1 0 0 0 0 0 0 0 0 0 0 0
0 0 0 0 0 0 0 0 0 0 0 0 0 0 0 0 0 0 0 0 0 0 0 0 0 0 0 0 0 0 0 0 0 0 0 0 0 0 0 0 0 0 0 0 0 0 0 0 0
0 0 0 0 0 0 0 0 0 0 0 0 0 0 0 0 0 0 0 0 0 0 0 0 0 0 0 0 0 0 0 0 0 0 0 0 0 0 0 0 0 0 0 0 0 0 0 0 0
0 0 0 0 0 0 0 0 0 0 0 0 0 0 0 0 0 0 0 0 0 0 0 0 0 0 0 0 0 0 0 0 0 0 0 0 0 0 0 0 0 0 0 0 0 0 0 0 0
0 0 0 0 0 0 0 0 0 0 0 0 0 0 0 0 0 0 0 0 0 0 0 0 0 0 0 0 0 0 0 0 0 0 0 0 0 0 0 0 0 0 0 0 0 0 0 0 0
0 0 0 0 0 0 0 0 0 0 0 0 0 0 0 0 0 0 0 0 0 0 0 0 0 0 0 0 0 0 0 0 0 0 0 0 0 0 0 0 0 0 0 0 0 0 0 0 0
0 0 0 0 0 0 0 0 0 0 0 0 0 0 0 0 0 0 0 0 0 0 0 0 0 0 0 0 0 0 0 0 0 0 0 0 0 0 0 0 0 0 0 0 0 0 0 0 0
0 0 0 0 0 0 0 0 0 0 0 0 0 0 0 0 0 0 0 0 0 0 0 0 0 0 0 0 0 0 0 0 0 0 0 0 0 0 0 0 0 0 0 0 0 0 0 0 0
0 0 0 0 0 0 0 0 0 0 0 0 0 0 0 0 0 0 0 0 0 0 0 0 0 0 0 0 0 0 0 0 0 0 0 0 0 0 0 0 0 0 0 0 0 0 0 0 0
0 0 0 0 0 0 0 0 0 0 0 0 0 0 0 0 0 0 0 0 0 0 0 0 0 0 0 0 0 0 0 0 0 0 0 0 0 0 0 0 0 0 0 0 0 0 0 0 0
0 0 0 0 0 0 0 -0 0 0 0 0 0 0 0 0 0 0 0 0 0 0 0 0 0 0 0 0 0 0 0 0 0 0 0 0 0 0 0 0 0 0 0 0 0 0 0 0 0
0 0 0 0 0 0 0 0 -0 0 0 0 0 0 0 0 0 0 0 0 0 0 0 0 0 0 0 0 0 0 0 0 0 0 0 0 0 0 0 0 0 0 0 0 0 0 0 0 0
0 0 0 0 0 0 0 -0 -0 -0 0 0 0 0 0 0 0 0 0 0 0 0 0 0 0 0 0 0 0 0 0 0 0 0 0 0 0 0 0 0 0 0 0 0 0 0 0 0 0
0 0 0 0 0 0 0 0 0 0 0 0 0 0 0 0 0 0 0 0 0 0 0 0 0 0 0 0 0 0 0 0 0 0 0 0 0 0 0 0 0 0 0 0 0 0 0 0 0
0 0 0 0 0 0 0 0 0 0 0 0 0 0 0 0 0 0 0 0 0 0 0 0 0 0 0 0 0 0 0 0 0 0 0 0 0 0 0 0 0 0 0 0 0 0 0 0 0
0 0 0 0 0 0 0 0 0 0 0 0 0 0 0 0 0 0 0 0 0 0 0 0 0 0 0 0 0 0 0 0 0 0 0 0 0 0 0 0 0 0 0 0 0 0 0 0 0
0 0 0 0 0 0 0 0 0 0 0 0 0 0 0 0 0 0 0 0 0 0 0 0 0 0 0 0 0 0 0 0 0 0 0 0 0 0 0 0 0 0 0 0 0 0 0 0 0
0 0 0 0 0 0 0 0 0 0 0 0 0 0 0 0 0 0 0 0 0 0 0 0 0 0 0 0 0 0 0 0 0 0 0 0 0 0 0 0 0 0 0 0 0 0 0 0 0
0 0 0 0 0 0 0 0 0 0 0 0 0 0 0 0 0 0 0 0 0 0 0 0 0 0 0 0 0 0 0 0 0 0 0 0 0 0 0 0 0 0 0 0 0 0 0 0 0
0 0 0 0 0 0 0 0 0 0 0 0 0 0 0 0 0 0 0 0 0 0 0 0 0 0 0 0 0 0 0 0 0 -0 -0 0 0 0 0 0 0 0 0 0 0 0 0 0 0
0 0 0 0 0 0 0 0 0 0 0 0 0 0 0 0 0 0 0 0 0 0 0 0 0 0 0 0 0 0 0 0 0 -0 0 0 0 0 0 0 0 0 0 0 0 0 0 0 0
0 0 0 0 0 0 0 0 0 0 0 0 0 0 0 0 0 0 0 0 0 0 0 0 0 0 0 0 0 0 0 0 0 -0 -0 0 0 0 0 0 0 0 -0 -0 0 -0 -0 -0 0
0 0 0 0 0 0 0 0 0 0 0 0 0 0 0 0 0 0 0 0 0 0 0 0 0 0 0 0 0 0 0 0 0 0 0 0 -0 -0 0 -0 -0 -0 -0 0 0 0 -0 0 0
Wind_Speed_500mb
9 15 12 4 5 9 4 5 4 7 4 4 7 4 16 13 6 3 9 14 14 12 13 17 13 14 16 22 26 21 23 23 24 25 26 28 26 25 23 18 16 16 16 15 18 20 19 22 18
11 14 9 2 8 6 7 5 5 1 3 6 19 15 13 6 9 6 5 12 16 15 13 17 19 22 26 26 28 27 25 27 29 28 27 29 31 28 26 21 19 18 16 16 18 22 22 21 19
17 15 5 8 6 7 8 5 2 3 9 5 7 17 8 4 4 3 12 16 17 20 20 18 21 27 31 34 31 32 31 29 32 32 30 29 31 29 25 24 26 24 17 18 23 29 27 25 21
12 7 2 7 7 5 10 7 5 4 9 12 9 13 11 9 2 10 17 19 17 19 24 23 22 27 33 36 39 30 34 34 35 36 35 33 33 34 30 26 33 26 16 15 31 29 28 25 25
8 2 5 4 7 5 1 4 1 4 6 7 4 9 12 9 5 14 22 23 22 21 27 34 31 29 31 36 39 39 42 41 41 40 40 37 37 37 36 36 37 26 19 20 25 29 29 36 28
4 2 8 5 7 7 4 3 2 6 6 2 8 15 11 6 11 22 29 26 25 29 33 39 43 41 36 36 43 47 46 49 47 46 45 42 39 38 41 43 43 30 23 23 28 29 30 29 28
9 7 7 8 9 7 6 0 4 5 2 1 3 12 14 2 18 28 34 33 30 33 40 43 44 45 45 46 46 49 49 48 53 53 50 48 45 42 41 44 48 32 27 27 28 32 34 29 28
5 7 6 6 10 9 6 5 5 2 5 6 2 6 7 12 24 30 31 32 33 34 38 42 42 44 48 49 49 51 52 55 57 68 59 53 51 47 46 48 50 35 31 31 36 28 31 26 25
2 5 6 5 8 6 7 6 4 2 2 6 6 6 2 15 23 28 28 29 31 35 36 38 41 42 45 49 53 55 55 54 64 63 59 61 55 50 48 54 49 39 35 38 37 31 31 26 24
6 5 10 2 1 5 5 5 8 3 2 7 14 5 9 19 25 27 29 28 32 38 42 43 44 45 45 47 48 53 52 54 56 59 57 53 57 55 56 54 46 41 40 40 39 34 32 26 27
5 8 5 2 3 4 6 4 6 6 9 17 18 17 17 21 24 24 20 23 33 41 45 51 55 57 56 49 47 45 47 51 56 57 54 55 49 64 64 57 52 46 45 43 41 34 33 28 29
5 3 4 7 3 3 3 4 7 21 10 10 11 12 16 21 23 19 19 29 39 46 49 52 58 63 53 50 44 43 44 43 52 56 53 47 47 38 75 62 61 52 55 48 45 39 30 31 31
3 5 5 8 7 7 7 12 13 23 23 17 13 16 18 22 20 18 27 34 40 47 53 57 60 62 57 50 46 48 50 47 46 50 54 47 43 45 54 63 67 63 61 55 48 39 32 31 36
2 6 7 9 8 8 7 8 4 11 31 25 19 22 21 23 21 24 32 41 49 52 54 57 61 61 61 64 62 59 56 52 54 48 47 52 51 40 47 77 81 63 64 56 49 41 35 31 40
5 2 5 11 8 5 4 12 18 24 30 26 22 23 23 23 21 26 34 44 52 54 57 59 62 68 74 68 45 47 46 54 55 50 44 49 57 56 38 80 85 73 60 58 51 43 36 37 35
3 5 6 2 10 2 5 18 5 26 33 32 26 27 27 21 19 22 32 40 47 52 55 58 58 71 73 55 50 46 44 47 49 49 43 46 53 60 45 56 101 85 70 66 60 49 40 39 34
7 5 6 10 17 3 9 15 9 29 36 36 30 28 29 21 17 20 30 39 44 48 53 63 56 73 59 53 48 49 42 40 35 39 38 39 49 58 57 43 70 75 79 75 61 44 39 45 33
7 5 7 9 4 7 12 37 20 29 40 46 37 30 29 23 18 21 31 38 42 45 52 59 56 67 56 47 51 51 47 39 33 33 38 34 44 58 56 39 56 51 61 42 40 51 43 36 27
4 3 6 7 2 7 14 31 38 33 47 46 48 35 28 24 18 21 30 36 40 44 56 62 59 67 51 49 52 52 48 36 30 27 25 26 34 54 51 49 48 63 44 39 61 55 50 42 36
4 3 8 9 4 5 10 42 31 16 21 43 54 44 31 25 19 20 28 36 39 46 56 65 64 66 43 44 42 43 41 32 25 22 22 21 30 55 36 62 57 66 40 59 65 58 47 45 48
4 8 5 9 13 5 16 18 10 6 3 19 39 35 27 23 17 18 26 34 38 45 51 61 66 57 42 39 36 36 38 30 23 10 12 18 36 61 40 53 48 61 53 64 66 59 58 62 63
4 6 7 2 8 6 10 10 12 8 11 4 29 29 29 20 13 15 24 30 36 41 43 53 62 56 41 34 35 39 32 26 19 8 7 8 46 50 44 47 48 58 56 55 63 60 52 65 72
6 7 5 3 2 6 8 6 15 10 9 12 19 32 26 20 13 11 20 25 29 36 44 53 60 52 35 35 35 27 30 23 10 8 9 28 33 33 44 45 41 55 49 52 61 54 62 64 63
10 7 9 8 5 4 7 8 12 6 9 5 10 36 31 26 14 6 15 20 24 31 41 52 57 44 31 30 31 21 23 23 19 20 17 35 27 30 33 28 35 37 41 49 56 65 54 56 57
4 7 4 8 5 8 5 3 21 11 12 9 15 35 36 28 17 4 8 16 22 30 37 50 53 42 34 28 28 23 17 18 23 24 24 27 27 29 33 35 33 38 29 39 50 50 59 58 52
10 10 9 10 3 7 3 12 12 7 12 15 16 35 36 29 19 8 2 13 18 25 31 41 49 40 30 27 29 27 25 26 31 23 25 25 24 19 24 28 26 34 35 38 22 39 38 50 40
7 8 4 11 4 5 6 15 15 5 3 8 23 36 38 31 23 14 5 8 12 18 24 32 46 44 31 23 22 19 30 35 35 25 17 22 36 33 24 19 22 17 14 28 30 59 54 41 35
5 7 6 5 4 7 9 11 11 10 16 13 15 39 39 31 27 19 9 6 8 11 17 19 29 39 39 27 25 23 26 38 44 40 29 28 36 30 25 26 25 42 57 55 46 53 46 49 53
5 4 2 5 7 7 4 12 12 9 13 22 23 50 45 40 34 23 15 10 9 6 13 16 21 29 34 38 37 34 30 30 50 46 49 52 52 63 72 69 66 65 67 58 63 61 62 53 52
7 13 12 8 10 5 3 15 9 8 10 24 40 53 48 43 38 30 21 15 14 9 16 17 19 25 25 32 40 53 58 57 63 72 74 74 72 71 73 73 78 75 71 62 58 60 50 48 44
Wind_Direction_500mb
204 198 209 206 64 65 275 281 30 20 41 329 341 56 112 68 64 223 153 345 327 315 300 306 294 264 245 249 258 254 242 240 236 234 233 233 223 217 223 226 215 204 200 200 167 180 180 196 189
173 174 195 183 97 94 269 279 93 31 195 74 84 91 52 64 68 102 141 328 332 338 311 295 287 271 258 259 250 256 252 242 240 237 237 236 226 224 223 223 215 196 194 198 181 192 200 195 185
159 164 200 110 114 169 195 216 196 174 51 82 88 69 69 34 52 86 3 344 328 325 320 303 287 279 270 262 258 256 254 248 242 239 237 238 233 227 235 228 204 197 201 194 183 189 204 188 179
159 168 122 98 211 209 183 203 236 149 72 56 104 74 89 59 270 346 340 338 324 316 304 301 287 273 271 268 269 264 257 254 247 242 237 237 234 235 228 227 204 201 212 185 191 198 190 194 182
144 153 53 50 266 127 197 207 44 78 88 34 48 154 124 72 32 336 334 325 311 307 300 299 293 287 277 268 268 264 251 252 248 241 238 236 236 235 227 220 211 209 211 189 199 202 185 184 186
101 99 61 239 237 164 235 284 124 73 54 74 90 131 147 72 348 332 331 329 317 303 295 290 291 292 278 264 256 256 254 249 245 243 236 231 232 228 222 218 211 211 204 206 196 197 190 179 176
109 79 213 233 197 169 209 326 97 106 103 96 115 140 173 199 324 322 319 315 310 301 295 295 295 290 282 272 262 254 255 246 244 243 235 231 224 222 221 216 208 213 207 205 205 206 198 184 179
73 94 250 235 192 213 197 149 140 157 190 146 203 170 179 290 315 314 311 309 309 309 308 304 295 293 289 282 274 266 257 253 244 245 239 226 228 221 217 212 205 210 206 191 205 226 198 184 183
155 68 248 235 181 185 165 159 155 180 199 191 183 169 309 318 304 303 313 320 326 334 333 325 319 310 297 288 278 270 259 255 248 249 247 232 227 223 215 205 206 209 201 197 205 216 212 186 186
114 144 234 278 91 159 163 184 183 193 200 198 173 169 307 297 308 319 327 338 351 353 355 351 345 336 324 303 282 276 271 261 254 253 263 227 222 226 214 208 211 208 200 199 205 213 212 191 185
172 207 178 240 120 142 187 190 205 175 239 212 213 254 294 305 317 320 334 347 351 352 350 351 346 336 326 326 291 281 279 269 262 255 250 251 226 221 216 210 206 205 201 199 201 210 207 193 185
201 168 171 181 240 233 212 266 253 222 241 219 245 265 283 304 308 326 340 344 342 346 343 340 342 340 330 321 315 292 289 279 267 263 254 255 235 259 207 209 204 206 202 201 203 203 204 196 189
198 195 150 181 212 236 255 254 253 240 233 234 240 248 265 293 299 318 331 337 341 341 339 338 340 339 334 326 313 304 291 281 275 270 258 247 238 217 237 227 217 206 204 203 204 201 196 196 188
261 184 196 220 239 247 246 257 305 256 217 216 232 242 256 288 297 319 329 340 341 340 336 335 336 336 332 323 309 303 295 280 269 269 258 241 235 222 220 220 216 204 199 204 205 204 201 198 191
135 325 287 232 214 239 312 268 232 245 193 211 233 241 249 287 302 317 332 337 336 335 334 334 334 332 328 324 323 321 311 295 276 266 257 237 230 225 203 215 199 204 207 204 207 203 199 193 189
34 57 330 253 161 210 72 272 280 199 197 220 234 237 244 277 295 310 326 329 331 331 331 329 332 331 332 331 326 320 317 300 285 273 259 243 225 225 218 218 208 210 207 208 200 198 197 195 188
5 244 230 309 204 126 182 271 277 202 212 230 238 242 241 260 269 296 318 327 331 333 331 333 333 334 335 336 336 332 325 313 298 284 268 252 226 214 216 219 227 206 196 202 196 196 196 189 181
209 240 251 249 226 214 263 263 256 230 224 234 240 243 237 243 255 298 318 325 331 336 334 341 336 339 339 345 341 338 329 314 301 289 270 256 223 206 207 205 216 197 186 187 205 194 188 188 174
162 224 263 273 291 272 237 270 276 236 233 236 238 237 234 228 254 298 318 325 335 340 341 349 344 342 343 351 344 346 334 319 304 283 263 251 217 196 204 190 207 189 174 202 202 199 179 175 179
119 97 280 283 223 248 308 289 283 254 233 227 226 225 224 213 248 294 320 329 344 345 347 352 349 340 347 352 351 353 344 335 320 274 234 237 198 185 192 194 194 178 195 200 201 193 171 178 184
149 166 226 242 324 277 322 292 337 318 345 223 219 219 207 218 257 301 323 336 347 347 352 357 349 350 348 355 355 346 335 355 357 305 223 212 190 176 170 198 204 202 193 198 203 194 189 176 179
221 172 162 339 31 271 28 280 309 322 319 203 204 200 197 219 252 302 323 340 352 351 353 358 353 350 355 354 0 353 344 348 334 45 95 208 167 181 174 183 197 199 192 197 205 197 199 182 183
207 141 133 92 38 6 340 64 271 347 312 240 212 205 209 213 235 296 327 348 355 354 357 360 354 352 4 1 358 359 3 357 46 116 109 159 161 173 176 193 199 193 200 199 197 203 193 188 187
133 94 46 49 67 3 245 128 286 233 220 283 212 214 207 200 214 282 331 354 359 2 4 4 0 4 8 12 360 8 17 37 74 108 122 156 164 168 173 190 194 201 204 209 214 197 188 189 194
106 86 339 346 10 225 164 67 247 255 242 220 204 203 198 197 205 210 334 2 8 13 15 12 9 15 16 16 7 22 44 63 86 101 115 145 148 164 173 178 191 188 203 215 204 204 201 196 201
176 166 164 219 224 278 89 236 252 219 296 216 208 194 189 197 199 185 9 11 21 25 26 19 23 22 20 38 24 22 68 83 81 104 109 122 123 125 141 173 170 195 210 184 188 185 163 138 130
182 193 170 106 31 36 230 280 295 168 99 127 163 184 197 199 200 182 140 36 40 34 39 33 41 39 30 34 51 30 82 93 97 97 124 121 113 148 141 147 179 174 168 196 198 132 125 125 117
154 161 78 357 142 268 278 273 245 231 220 195 191 203 207 204 205 192 166 92 75 42 48 45 53 53 51 52 78 73 73 92 104 102 100 136 126 119 126 150 136 138 120 110 102 116 113 127 131
142 206 135 123 160 183 295 263 212 223 198 205 203 208 209 208 206 198 185 138 121 82 66 69 60 72 73 72 80 89 96 95 111 114 119 120 122 119 117 116 116 118 117 120 118 131 133 136 130
188 188 168 149 213 223 163 272 212 234 263 215 205 210 214 213 205 200 196 167 144 147 116 90 79 92 94 92 90 92 96 101 109 115 119 121 122 124 122 121 122 122 123 126 124 129 128 130 131
Wind_Speed_850mb
9 15 12 4 5 9 4 5 4 7 4 4 7 4 16 13 6 3 9 14 14 12 13 17 13 14 16 22 26 21 23 23 24 25 26 28 26 25 23 18 16 16 16 15 18 20 19 22 18
11 14 9 2 8 6 7 5 5 1 3 6 19 15 13 6 9 6 5 12 16 15 13 17 19 22 26 26 28 27 25 27 29 28 27 29 31 28 26 21 19 18 16 16 18 22 22 21 19
17 15 5 8 6 7 8 5 2 3 9 5 7 17 8 4 4 3 12 16 17 20 20 18 21 27 31 34 31 32 31 29 32 32 30 29 31 29 25 24 26 24 17 18 23 29 27 25 21
12 7 2 7 7 5 10 7 5 4 9 12 9 13 11 9 2 10 17 19 17 19 24 23 22 27 33 36 39 30 34 34 35 36 35 33 33 34 30 26 33 26 16 15 31 29 28 25 25
8 2 5 4 7 5 1 4 1 4 6 7 4 9 12 9 5 14 22 23 22 21 27 34 31 29 31 36 39 39 42 41 41 40 40 37 37 37 36 36 37 26 19 20 25 29 29 36 28
4 2 8 5 7 7 4 3 2 6 6 2 8 15 11 6 11 22 29 26 25 29 33 39 43 41 36 36 43 47 46 49 47 46 45 42 39 38 41 43 43 30 23 23 28 29 30 29 28
9 7 7 8 9 7 6 0 4 5 2 1 3 12 14 2 18 28 34 33 30 33 40 43 44 45 45 46 46 49 49 48 53 53 50 48 45 42 41 44 48 32 27 27 28 32 34 29 28
5 7 6 6 10 9 6 5 5 2 5 6 2 6 7 12 24 30 31 32 33 34 38 42 42 44 48 49 49 51 52 55 57 68 59 53 51 47 46 48 50 35 31 31 36 28 31 26 25
2 5 6 5 8 6 7 6 4 2 2 6 6 6 2 15 23 28 28 29 31 35 36 38 41 42 45 49 53 55 55 54 64 63 59 61 55 50 48 54 49 39 35 38 37 31 31 26 24
6 5 10 2 1 5 5 5 8 3 2 7 14 5 9 19 25 27 29 28 32 38 42 43 44 45 45 47 48 53 52 54 56 59 57 53 57 55 56 54 46 41 40 40 39 34 32 26 27
5 8 5 2 3 4 6 4 6 6 9 17 18 17 17 21 24 24 20 23 33 41 45 51 55 57 56 49 47 45 47 51 56 57 54 55 49 64 64 57 52 46 45 43 41 34 33 28 29
5 3 4 7 3 3 3 4 7 21 10 10 11 12 16 21 23 19 19 29 39 46 49 52 58 63 53 50 44 43 44 43 52 56 53 47 47 38 75 62 61 52 55 48 45 39 30 31 31
3 5 5 8 7 7 7 12 13 23 23 17 13 16 18 22 20 18 27 34 40 47 53 57 60 62 57 50 46 48 50 47 46 50 54 47 43 45 54 63 67 63 61 55 48 39 32 31 36
2 6 7 9 8 8 7 8 4 11 31 25 19 22 21 23 21 24 32 41 49 52 54 57 61 61 61 64 62 59 56 52 54 48 47 52 51 40 47 77 81 63 64 56 49 41 35 31 40
5 2 5 11 8 5 4 12 18 24 30 26 22 23 23 23 21 26 34 44 52 54 57 59 62 68 74 68 45 47 46 54 55 50 44 49 57 56 38 80 85 73 60 58 51 43 36 37 35
3 5 6 2 10 2 5 18 5 26 33 32 26 27 27 21 19 22 32 40 47 52 55 58 58 71 73 55 50 46 44 47 49 49 43 46 53 60 45 56 101 85 70 66 60 49 40 39 34
7 5 6 10 17 3 9 15 9 29 36 36 30 28 29 21 17 20 30 39 44 48 53 63 56 73 59 53 48 49 42 40 35 39 38 39 49 58 57 43 70 75 79 75 61 44 39 45 33
7 5 7 9 4 7 12 37 20 29 40 46 37 30 29 23 18 21 31 38 42 45 52 59 56 67 56 47 51 51 47 39 33 33 38 34 44 58 56 39 56 51 61 42 40 51 43 36 27
4 3 6 7 2 7 14 31 38 33 47 46 48 35 28 24 18 21 30 36 40 44 56 62 59 67 51 49 52 52 48 36 30 27 25 26 34 54 51 49 48 63 44 39 61 55 50 42 36
4 3 8 9 4 5 10 42 31 16 21 43 54 44 31 25 19 20 28 36 39 46 56 65 64 66 43 44 42 43 41 32 25 22 22 21 30 55 36 62 57 66 40 59 65 58 47 45 48
4 8 5 9 13 5 16 18 10 6 3 19 39 35 27 23 17 18 26 34 38 45 51 61 66 57 42 39 36 36 38 30 23 10 12 18 36 61 40 53 48 61 53 64 66 59 58 62 63
4 6 7 2 8 6 10 10 12 8 11 4 29 29 29 20 13 15 24 30 36 41 43 53 62 56 41 34 35 39 32 26 19 8 7 8 46 50 44 47 48 58 56 55 63 60 52 65 72
6 7 5 3 2 6 8 6 15 10 9 12 19 32 26 20 13 11 20 25 29 36 44 53 60 52 35 35 35 27 30 23 10 8 9 28 33 33 44 45 41 55 49 52 61 54 62 64 63
10 7 9 8 5 4 7 8 12 6 9 5 10 36 31 26 14 6 15 20 24 31 41 52 57 44 31 30 31 21 23 23 19 20 17 35 27 30 33 28 35 37 41 49 56 65 54 56 57
4 7 4 8 5 8 5 3 21 11 12 9 15 35 36 28 17 4 8 16 22 30 37 50 53 42 34 28 28 23 17 18 23 24 24 27 27 29 33 35 33 38 29 39 50 50 59 58 52
10 10 9 10 3 7 3 12 12 7 12 15 16 35 36 29 19 8 2 13 18 25 31 41 49 40 30 27 29 27 25 26 31 23 25 25 24 19 24 28 26 34 35 38 22 39 38 50 40
7 8 4 11 4 5 6 15 15 5 3 8 23 36 38 31 23 14 5 8 12 18 24 32 46 44 31 23 22 19 30 35 35 25 17 22 36 33 24 19 22 17 14 28 30 59 54 41 35
5 7 6 5 4 7 9 11 11 10 16 13 15 39 39 31 27 19 9 6 8 11 17 19 29 39 39 27 25 23 26 38 44 40 29 28 36 30 25 26 25 42 57 55 46 53 46 49 53
5 4 2 5 7 7 4 12 12 9 13 22 23 50 45 40 34 23 15 10 9 6 13 16 21 29 34 38 37 34 30 30 50 46 49 52 52 63 72 69 66 65 67 58 63 61 62 53 52
7 13 12 8 10 5 3 15 9 8 10 24 40 53 48 43 38 30 21 15 14 9 16 17 19 25 25 32 40 53 58 57 63 72 74 74 72 71 73 73 78 75 71 62 58 60 50 48 44
Wind_Direction_850mb
204 198 209 206 64 65 275 281 30 20 41 329 341 56 112 68 64 223 153 345 327 315 300 306 294 264 245 249 258 254 242 240 236 234 233 233 223 217 223 226 215 204 200 200 167 180 180 196 189
173 174 195 183 97 94 269 279 93 31 195 74 84 91 52 64 68 102 141 328 332 338 311 295 287 271 258 259 250 256 252 242 240 237 237 236 226 224 223 223 215 196 194 198 181 192 200 195 185
159 164 200 110 114 169 195 216 196 174 51 82 88 69 69 34 52 86 3 344 328 325 320 303 287 279 270 262 258 256 254 248 242 239 237 238 233 227 235 228 204 197 201 194 183 189 204 188 179
159 168 122 98 211 209 183 203 236 149 72 56 104 74 89 59 270 346 340 338 324 316 304 301 287 273 271 268 269 264 257 254 247 242 237 237 234 235 228 227 204 201 212 185 191 198 190 194 182
144 153 53 50 266 127 197 207 44 78 88 34 48 154 124 72 32 336 334 325 311 307 300 299 293 287 277 268 268 264 251 252 248 241 238 236 236 235 227 220 211 209 211 189 199 202 185 184 186
101 99 61 239 237 164 235 284 124 73 54 74 90 131 147 72 348 332 331 329 317 303 295 290 291 292 278 264 256 256 254 249 245 243 236 231 232 228 222 218 211 211 204 206 196 197 190 179 176
109 79 213 233 197 169 209 326 97 106 103 96 115 140 173 199 324 322 319 315 310 301 295 295 295 290 282 272 262 254 255 246 244 243 235 231 224 222 221 216 208 213 207 205 205 206 198 184 179
73 94 250 235 192 213 197 149 140 157 190 146 203 170 179 290 315 314 311 309 309 309 308 304 295 293 289 282 274 266 257 253 244 245 239 226 228 221 217 212 205 210 206 191 205 226 198 184 183
155 68 248 235 181 185 165 159 155 180 199 191 183 169 309 318 304 303 313 320 326 334 333 325 319 310 297 288 278 270 259 255 248 249 247 232 227 223 215 205 206 209 201 197 205 216 212 186 186
114 144 234 278 91 159 163 184 183 193 200 198 173 169 307 297 308 319 327 338 351 353 355 351 345 336 324 303 282 276 271 261 254 253 263 227 222 226 214 208 211 208 200 199 205 213 212 191 185
172 207 178 240 120 142 187 190 205 175 239 212 213 254 294 305 317 320 334 347 351 352 350 351 346 336 326 326 291 281 279 269 262 255 250 251 226 221 216 210 206 205 201 199 201 210 207 193 185
201 168 171 181 240 233 212 266 253 222 241 219 245 265 283 304 308 326 340 344 342 346 343 340 342 340 330 321 315 292 289 279 267 263 254 255 235 259 207 209 204 206 202 201 203 203 204 196 189
198 195 150 181 212 236 255 254 253 240 233 234 240 248 265 293 299 318 331 337 341 341 339 338 340 339 334 326 313 304 291 281 275 270 258 247 238 217 237 227 217 206 204 203 204 201 196 196 188
261 184 196 220 239 247 246 257 305 256 217 216 232 242 256 288 297 319 329 340 341 340 336 335 336 336 332 323 309 303 295 280 269 269 258 241 235 222 220 220 216 204 199 204 205 204 201 198 191
135 325 287 232 214 239 312 268 232 245 193 211 233 241 249 287 302 317 332 337 336 335 334 334 334 332 328 324 323 321 311 295 276 266 257 237 230 225 203 215 199 204 207 204 207 203 199 193 189
34 57 330 253 161 210 72 272 280 199 197 220 234 237 244 277 295 310 326 329 331 331 331 329 332 331 332 331 326 320 317 300 285 273 259 243 225 225 218 218 208 210 207 208 200 198 197 195 188
5 244 230 309 204 126 182 271 277 202 212 230 238 242 241 260 269 296 318 327 331 333 331 333 333 334 335 336 336 332 325 313 298 284 268 252 226 214 216 219 227 206 196 202 196 196 196 189 181
209 240 251 249 226 214 263 263 256 230 224 234 240 243 237 243 255 298 318 325 331 336 334 341 336 339 339 345 341 338 329 314 301 289 270 256 223 206 207 205 216 197 186 187 205 194 188 188 174
162 224 263 273 291 272 237 270 276 236 233 236 238 237 234 228 254 298 318 325 335 340 341 349 344 342 343 351 344 346 334 319 304 283 263 251 217 196 204 190 207 189 174 202 202 199 179 175 179
119 97 280 283 223 248 308 289 283 254 233 227 226 225 224 213 248 294 320 329 344 345 347 352 349 340 347 352 351 353 344 335 320 274 234 237 198 185 192 194 194 178 195 200 201 193 171 178 184
149 166 226 242 324 277 322 292 337 318 345 223 219 219 207 218 257 301 323 336 347 347 352 357 349 350 348 355 355 346 335 355 357 305 223 212 190 176 170 198 204 202 193 198 203 194 189 176 179
221 172 162 339 31 271 28 280 309 322 319 203 204 200 197 219 252 302 323 340 352 351 353 358 353 350 355 354 0 353 344 348 334 45 95 208 167 181 174 183 197 199 192 197 205 197 199 182 183
207 141 133 92 38 6 340 64 271 347 312 240 212 205 209 213 235 296 327 348 355 354 357 360 354 352 4 1 358 359 3 357 46 116 109 159 161 173 176 193 199 193 200 199 197 203 193 188 187
133 94 46 49 67 3 245 128 286 233 220 283 212 214 207 200 214 282 331 354 359 2 4 4 0 4 8 12 360 8 17 37 74 108 122 156 164 168 173 190 194 201 204 209 214 197 188 189 194
106 86 339 346 10 225 164 67 247 255 242 220 204 203 198 197 205 210 334 2 8 13 15 12 9 15 16 16 7 22 44 63 86 101 115 145 148 164 173 178 191 188 203 215 204 204 201 196 201
176 166 164 219 224 278 89 236 252 219 296 216 208 194 189 197 199 185 9 11 21 25 26 19 23 22 20 38 24 22 68 83 81 104 109 122 123 125 141 173 170 195 210 184 188 185 163 138 130
182 193 170 106 31 36 230 280 295 168 99 127 163 184 197 199 200 182 140 36 40 34 39 33 41 39 30 34 51 30 82 93 97 97 124 121 113 148 141 147 179 174 168 196 198 132 125 125 117
154 161 78 357 142 268 278 273 245 231 220 195 191 203 207 204 205 192 166 92 75 42 48 45 53 53 51 52 78 73 73 92 104 102 100 136 126 119 126 150 136 138 120 110 102 116 113 127 131
142 206 135 123 160 183 295 263 212 223 198 205 203 208 209 208 206 198 185 138 121 82 66 69 60 72 73 72 80 89 96 95 111 114 119 120 122 119 117 116 116 118 117 120 118 131 133 136 130
188 188 168 149 213 223 163 272 212 234 263 215 205 210 214 213 205 200 196 167 144 147 116 90 79 92 94 92 90 92 96 101 109 115 119 121 122 124 122 121 122 122 123 126 124 129 128 130 131